Time,TemperatureF,DewpointF,PressureIn,WindDirection,WindDirectionDegrees,WindSpeedMPH,WindSpeedGustMPH,Humidity,HourlyPrecipIn,Conditions,Clouds,dailyrainin,SolarRadiationWatts/m^2,SoftwareType,DateUTC
2013-06-13 00:01:00,47.0,46.0,-100.00,NW,323,2.0,2.0,98,0.00,,,0.00,0.000000,,2013-06-13 07:01:00,
2013-06-13 00:11:00,47.0,46.0,-100.00,NW,323,2.0,2.0,98,0.00,,,0.00,0.000000,,2013-06-13 07:11:00,
2013-06-13 00:42:00,47.0,46.0,-100.00,North,359,1.0,2.0,98,0.00,,,0.00,0.000000,,2013-06-13 07:42:00,
2013-06-13 00:52:00,47.0,46.0,-100.00,North,359,1.0,2.0,98,0.00,,,0.00,0.000000,,2013-06-13 07:52:00,
2013-06-13 01:01:00,47.0,46.0,-100.00,North,359,1.0,2.0,98,0.00,,,0.00,0.000000,,2013-06-13 08:01:00,
2013-06-13 01:11:00,47.0,46.0,-100.00,North,359,1.0,2.0,98,0.00,,,0.00,0.000000,,2013-06-13 08:11:00,
2013-06-13 01:43:00,48.0,47.0,-100.00,ENE,78,1.0,2.0,98,0.00,,,0.00,0.000000,,2013-06-13 08:43:00,
2013-06-13 01:52:00,48.0,47.0,-100.00,ENE,78,1.0,2.0,98,0.00,,,0.00,0.000000,,2013-06-13 08:52:00,
2013-06-13 02:01:00,48.0,47.0,-100.00,ENE,78,1.0,2.0,98,0.00,,,0.00,0.000000,,2013-06-13 09:01:00,
2013-06-13 02:11:00,48.0,47.0,-100.00,ENE,78,1.0,2.0,98,0.00,,,0.00,0.000000,,2013-06-13 09:11:00,
2013-06-13 02:32:00,48.0,47.0,-100.00,WNW,298,2.0,3.0,98,0.00,,,0.00,0.000000,,2013-06-13 09:32:00,
2013-06-13 02:42:00,48.0,47.0,-100.00,WNW,298,2.0,3.0,98,0.00,,,0.00,0.000000,,2013-06-13 09:42:00,
2013-06-13 02:52:00,48.0,47.0,-100.00,WNW,298,2.0,3.0,98,0.00,,,0.00,0.000000,,2013-06-13 09:52:00,
2013-06-13 03:01:00,48.0,47.0,-100.00,WNW,298,2.0,3.0,98,0.00,,,0.00,0.000000,,2013-06-13 10:01:00,
2013-06-13 03:11:00,48.0,47.0,-100.00,WNW,298,2.0,3.0,98,0.00,,,0.00,0.000000,,2013-06-13 10:11:00,
2013-06-13 03:33:00,48.0,48.0,-100.00,SE,137,0.0,2.0,99,0.00,,,0.00,0.000000,,2013-06-13 10:33:00,
2013-06-13 03:43:00,48.0,48.0,-100.00,SE,137,0.0,2.0,99,0.00,,,0.00,0.000000,,2013-06-13 10:43:00,
2013-06-13 03:53:00,48.0,48.0,-100.00,SE,137,0.0,2.0,99,0.00,,,0.00,0.000000,,2013-06-13 10:53:00,
2013-06-13 04:01:00,48.0,48.0,-100.00,SE,137,0.0,2.0,99,0.00,,,0.00,0.000000,,2013-06-13 11:01:00,
2013-06-13 04:11:00,48.0,48.0,-100.00,SE,137,0.0,2.0,99,0.00,,,0.00,0.000000,,2013-06-13 11:11:00,
2013-06-13 04:42:00,48.0,48.0,-100.00,WSW,248,1.0,2.0,99,0.01,,,0.01,0.000000,,2013-06-13 11:42:00,
2013-06-13 04:52:00,48.0,48.0,-100.00,WSW,248,1.0,2.0,99,0.01,,,0.01,0.000000,,2013-06-13 11:52:00,
2013-06-13 05:01:00,48.0,48.0,-100.00,WSW,248,1.0,2.0,99,0.01,,,0.01,0.000000,,2013-06-13 12:01:00,
2013-06-13 05:11:00,48.0,48.0,-100.00,WSW,248,1.0,2.0,99,0.01,,,0.01,0.000000,,2013-06-13 12:11:00,
2013-06-13 05:35:00,48.0,48.0,-100.00,SSE,167,1.0,2.0,99,0.01,,,0.02,0.000000,,2013-06-13 12:35:00,
2013-06-13 05:43:00,48.0,48.0,-100.00,SSE,167,1.0,2.0,99,0.01,,,0.02,0.000000,,2013-06-13 12:43:00,
2013-06-13 05:52:00,48.0,48.0,-100.00,SSE,167,1.0,2.0,99,0.01,,,0.02,0.000000,,2013-06-13 12:52:00,
2013-06-13 06:01:00,48.0,48.0,-100.00,SSE,167,1.0,2.0,99,0.01,,,0.02,0.000000,,2013-06-13 13:01:00,
2013-06-13 06:11:00,48.0,48.0,-100.00,SSE,167,1.0,2.0,99,0.01,,,0.02,0.000000,,2013-06-13 13:11:00,
2013-06-13 06:43:00,48.0,48.0,-100.00,SSE,167,2.0,3.0,100,0.00,,,0.02,3.000000,,2013-06-13 13:43:00,
2013-06-13 06:53:00,48.0,48.0,-100.00,SSE,167,2.0,3.0,100,0.00,,,0.02,3.000000,,2013-06-13 13:53:00,
2013-06-13 07:02:00,48.0,48.0,-100.00,SSE,167,2.0,3.0,100,0.00,,,0.02,3.000000,,2013-06-13 14:02:00,
2013-06-13 07:11:00,48.0,48.0,-100.00,SSE,167,2.0,3.0,100,0.00,,,0.02,3.000000,,2013-06-13 14:11:00,
2013-06-13 07:43:00,49.0,49.0,-100.00,SSW,200,2.0,4.0,99,0.01,,,0.03,26.000000,,2013-06-13 14:43:00,
2013-06-13 07:53:00,49.0,49.0,-100.00,SSW,200,2.0,4.0,99,0.01,,,0.03,26.000000,,2013-06-13 14:53:00,
2013-06-13 08:01:00,49.0,49.0,-100.00,SSW,200,2.0,4.0,99,0.01,,,0.03,26.000000,,2013-06-13 15:01:00,
2013-06-13 08:11:00,49.0,49.0,-100.00,SSW,200,2.0,4.0,99,0.01,,,0.03,26.000000,,2013-06-13 15:11:00,
2013-06-13 08:43:00,50.0,49.0,-100.00,SSW,212,2.0,3.0,98,0.01,,,0.04,108.000000,,2013-06-13 15:43:00,
2013-06-13 09:01:00,50.0,49.0,-100.00,SSW,212,2.0,3.0,98,0.01,,,0.04,108.000000,,2013-06-13 16:01:00,
2013-06-13 09:11:00,50.0,49.0,-100.00,SSW,212,2.0,3.0,98,0.01,,,0.04,108.000000,,2013-06-13 16:11:00,
2013-06-13 09:43:00,53.0,51.0,-100.00,WNW,289,2.0,4.0,92,0.00,,,0.04,213.000000,,2013-06-13 16:43:00,
2013-06-13 09:53:00,53.0,51.0,-100.00,WNW,289,2.0,4.0,92,0.00,,,0.04,213.000000,,2013-06-13 16:53:00,
2013-06-13 10:02:00,53.0,51.0,-100.00,WNW,289,2.0,4.0,92,0.00,,,0.04,213.000000,,2013-06-13 17:02:00,
2013-06-13 10:11:00,53.0,51.0,-100.00,WNW,289,2.0,4.0,92,0.00,,,0.04,213.000000,,2013-06-13 17:11:00,
2013-06-13 10:43:00,54.0,51.0,-100.00,West,276,2.0,4.0,91,0.00,,,0.04,272.000000,,2013-06-13 17:43:00,
2013-06-13 10:53:00,54.0,51.0,-100.00,West,276,2.0,4.0,91,0.00,,,0.04,272.000000,,2013-06-13 17:53:00,
2013-06-13 11:02:00,54.0,51.0,-100.00,West,276,2.0,4.0,91,0.00,,,0.04,272.000000,,2013-06-13 18:02:00,
2013-06-13 11:11:00,54.0,51.0,-100.00,West,276,2.0,4.0,91,0.00,,,0.04,272.000000,,2013-06-13 18:11:00,
2013-06-13 11:33:00,55.0,51.0,-100.00,WNW,295,3.0,4.0,87,0.00,,,0.04,379.000000,,2013-06-13 18:33:00,
2013-06-13 11:43:00,55.0,51.0,-100.00,WNW,295,3.0,4.0,87,0.00,,,0.04,379.000000,,2013-06-13 18:43:00,
2013-06-13 11:52:00,55.0,51.0,-100.00,WNW,295,3.0,4.0,87,0.00,,,0.04,379.000000,,2013-06-13 18:52:00,
2013-06-13 12:01:00,55.0,51.0,-100.00,WNW,295,3.0,4.0,87,0.00,,,0.04,379.000000,,2013-06-13 19:01:00,
2013-06-13 12:11:00,55.0,51.0,-100.00,WNW,295,3.0,4.0,87,0.00,,,0.04,379.000000,,2013-06-13 19:11:00,
2013-06-13 12:43:00,57.0,51.0,-100.00,WNW,289,3.0,5.0,79,0.00,,,0.04,549.000000,,2013-06-13 19:43:00,
2013-06-13 12:53:00,57.0,51.0,-100.00,WNW,289,3.0,5.0,79,0.00,,,0.04,549.000000,,2013-06-13 19:53:00,
2013-06-13 13:01:00,57.0,51.0,-100.00,WNW,289,3.0,5.0,79,0.00,,,0.04,549.000000,,2013-06-13 20:01:00,
2013-06-13 13:11:00,57.0,51.0,-100.00,WNW,289,3.0,5.0,79,0.00,,,0.04,549.000000,,2013-06-13 20:11:00,
2013-06-13 13:33:00,58.0,51.0,-100.00,WNW,282,3.0,6.0,77,0.00,,,0.04,629.000000,,2013-06-13 20:33:00,
2013-06-13 13:44:00,58.0,51.0,-100.00,WNW,282,3.0,6.0,77,0.00,,,0.04,629.000000,,2013-06-13 20:44:00,
2013-06-13 13:53:00,58.0,51.0,-100.00,WNW,282,3.0,6.0,77,0.00,,,0.04,629.000000,,2013-06-13 20:53:00,
2013-06-13 14:01:00,58.0,51.0,-100.00,WNW,282,3.0,6.0,77,0.00,,,0.04,629.000000,,2013-06-13 21:01:00,
2013-06-13 14:11:00,58.0,51.0,-100.00,WNW,282,3.0,6.0,77,0.00,,,0.04,629.000000,,2013-06-13 21:11:00,
2013-06-13 14:43:00,59.0,50.0,-100.00,NW,304,3.0,6.0,72,0.00,,,0.04,676.000000,,2013-06-13 21:43:00,
2013-06-13 14:52:00,59.0,50.0,-100.00,NW,304,3.0,6.0,72,0.00,,,0.04,676.000000,,2013-06-13 21:52:00,
2013-06-13 15:01:00,59.0,50.0,-100.00,NW,304,3.0,6.0,72,0.00,,,0.04,676.000000,,2013-06-13 22:01:00,
2013-06-13 15:11:00,59.0,50.0,-100.00,NW,304,3.0,6.0,72,0.00,,,0.04,676.000000,,2013-06-13 22:11:00,
2013-06-13 15:43:00,59.0,51.0,-100.00,WNW,285,3.0,6.0,75,0.00,,,0.04,760.000000,,2013-06-13 22:43:00,
2013-06-13 15:52:00,59.0,51.0,-100.00,WNW,285,3.0,6.0,75,0.00,,,0.04,760.000000,,2013-06-13 22:52:00,
2013-06-13 16:01:00,59.0,51.0,-100.00,WNW,285,3.0,6.0,75,0.00,,,0.04,760.000000,,2013-06-13 23:01:00,
2013-06-13 16:11:00,59.0,51.0,-100.00,WNW,285,3.0,6.0,75,0.00,,,0.04,760.000000,,2013-06-13 23:11:00,
2013-06-13 16:43:00,60.0,51.0,-100.00,NW,321,3.0,7.0,72,0.00,,,0.04,540.000000,,2013-06-13 23:43:00,
2013-06-13 16:52:00,60.0,51.0,-100.00,NW,321,3.0,7.0,72,0.00,,,0.04,540.000000,,2013-06-13 23:52:00,
2013-06-13 17:01:00,60.0,51.0,-100.00,NW,321,3.0,7.0,72,0.00,,,0.04,540.000000,,2013-06-14 00:01:00,
2013-06-13 17:11:00,60.0,51.0,-100.00,NW,321,3.0,7.0,72,0.00,,,0.04,540.000000,,2013-06-14 00:11:00,
2013-06-13 17:43:00,60.0,50.0,-100.00,NW,304,4.0,6.0,70,0.00,,,0.04,562.000000,,2013-06-14 00:43:00,
2013-06-13 17:53:00,60.0,50.0,-100.00,NW,304,4.0,6.0,70,0.00,,,0.04,562.000000,,2013-06-14 00:53:00,
2013-06-13 18:01:00,60.0,50.0,-100.00,NW,304,4.0,6.0,70,0.00,,,0.04,562.000000,,2013-06-14 01:01:00,
2013-06-13 18:11:00,60.0,50.0,-100.00,NW,304,4.0,6.0,70,0.00,,,0.04,562.000000,,2013-06-14 01:11:00,
2013-06-13 18:43:00,61.0,50.0,-100.00,NW,305,3.0,6.0,67,0.00,,,0.04,537.000000,,2013-06-14 01:43:00,
2013-06-13 18:52:00,61.0,50.0,-100.00,NW,305,3.0,6.0,67,0.00,,,0.04,537.000000,,2013-06-14 01:52:00,
2013-06-13 19:01:00,61.0,50.0,-100.00,NW,305,3.0,6.0,67,0.00,,,0.04,537.000000,,2013-06-14 02:01:00,
2013-06-13 19:11:00,61.0,50.0,-100.00,NW,305,3.0,6.0,67,0.00,,,0.04,537.000000,,2013-06-14 02:11:00,
2013-06-13 19:43:00,60.0,51.0,-100.00,NW,323,3.0,5.0,72,0.00,,,0.04,322.000000,,2013-06-14 02:43:00,
2013-06-13 19:52:00,60.0,51.0,-100.00,NW,323,3.0,5.0,72,0.00,,,0.04,322.000000,,2013-06-14 02:52:00,
2013-06-13 20:02:00,60.0,51.0,-100.00,NW,323,3.0,5.0,72,0.00,,,0.04,322.000000,,2013-06-14 03:02:00,
2013-06-13 20:11:00,60.0,51.0,-100.00,NW,323,3.0,5.0,72,0.00,,,0.04,322.000000,,2013-06-14 03:11:00,
2013-06-13 20:43:00,54.0,49.0,-100.00,NNW,343,2.0,5.0,84,0.00,,,0.04,91.000000,,2013-06-14 03:43:00,
2013-06-13 20:53:00,54.0,49.0,-100.00,NNW,343,2.0,5.0,84,0.00,,,0.04,91.000000,,2013-06-14 03:53:00,
2013-06-13 21:01:00,54.0,49.0,-100.00,NNW,343,2.0,5.0,84,0.00,,,0.04,91.000000,,2013-06-14 04:01:00,
2013-06-13 21:12:00,54.0,49.0,-100.00,NNW,343,2.0,5.0,84,0.00,,,0.04,91.000000,,2013-06-14 04:12:00,
2013-06-13 21:43:00,51.0,49.0,-100.00,NNW,342,2.0,5.0,92,0.00,,,0.04,16.000000,,2013-06-14 04:43:00,
2013-06-13 21:53:00,51.0,49.0,-100.00,NNW,342,2.0,5.0,92,0.00,,,0.04,16.000000,,2013-06-14 04:53:00,
2013-06-13 22:01:00,51.0,49.0,-100.00,NNW,342,2.0,5.0,92,0.00,,,0.04,16.000000,,2013-06-14 05:01:00,
2013-06-13 22:11:00,51.0,49.0,-100.00,NNW,342,2.0,5.0,92,0.00,,,0.04,16.000000,,2013-06-14 05:11:00,
2013-06-13 22:34:00,50.0,49.0,-100.00,NNW,344,2.0,3.0,97,0.00,,,0.04,0.000000,,2013-06-14 05:34:00,
2013-06-13 22:43:00,50.0,49.0,-100.00,NNW,344,2.0,3.0,97,0.00,,,0.04,0.000000,,2013-06-14 05:43:00,
2013-06-13 22:52:00,50.0,49.0,-100.00,NNW,344,2.0,3.0,97,0.00,,,0.04,0.000000,,2013-06-14 05:52:00,
2013-06-13 23:02:00,50.0,49.0,-100.00,NNW,344,2.0,3.0,97,0.00,,,0.04,0.000000,,2013-06-14 06:02:00,
2013-06-13 23:12:00,50.0,49.0,-100.00,NNW,344,2.0,3.0,97,0.00,,,0.04,0.000000,,2013-06-14 06:12:00,
2013-06-13 23:33:00,49.0,49.0,-100.00,NNE,14,1.0,2.0,99,0.00,,,0.04,0.000000,,2013-06-14 06:33:00,
2013-06-13 23:43:00,49.0,49.0,-100.00,NNE,14,1.0,2.0,99,0.00,,,0.04,0.000000,,2013-06-14 06:43:00,
2013-06-13 23:52:00,49.0,49.0,-100.00,NNE,14,1.0,2.0,99,0.00,,,0.04,0.000000,,2013-06-14 06:52:00,